SWA2479 KIND-KMDW

Flight info

Callsign SWA2479
Flight time 0h 39m
Altitude 21000
Route MEARZ7 MEARZ CLLRK DROSE FISSK7
Aircraft B738/M-SADE2E3GIJ4RWZ/LB1D1

Departure

Time 2026-05-07 01:08
Airport Indianapolis International Airport (KIND)

Arrival

Time 2026-05-07 01:47
Airport Chicago Midway International Airport (KMDW)
Time Latitude Longitude Altitude Speed Heading
2026-05-07 00:39 39.71869 -86.29623 788 ft 0 kts 205°
2026-05-07 00:51 39.71872 -86.29621 788 ft 2 kts 205°
2026-05-07 00:51 39.71890 -86.29611 788 ft 3 kts 202°
2026-05-07 00:51 39.71909 -86.29601 788 ft 3 kts 200°
2026-05-07 00:52 39.71927 -86.29592 788 ft 2 kts 202°
2026-05-07 00:52 39.71944 -86.29585 789 ft 3 kts 181°
2026-05-07 00:52 39.71963 -86.29588 788 ft 3 kts 148°
2026-05-07 00:52 39.71978 -86.29604 788 ft 2 kts 130°
2026-05-07 00:53 39.71983 -86.29612 788 ft 1 kts 129°
2026-05-07 00:53 39.71984 -86.29613 788 ft 0 kts 129°
2026-05-07 00:56 39.71970 -86.29592 788 ft 10 kts 130°
2026-05-07 00:56 39.71898 -86.29480 789 ft 20 kts 129°
2026-05-07 00:56 39.71849 -86.29335 789 ft 12 kts 62°
2026-05-07 00:56 39.71922 -86.29276 789 ft 13 kts 353°
2026-05-07 00:57 39.71994 -86.29354 789 ft 15 kts 315°
2026-05-07 00:57 39.72082 -86.29470 787 ft 19 kts 314°
2026-05-07 00:57 39.72171 -86.29587 786 ft 18 kts 315°
2026-05-07 00:57 39.72261 -86.29688 783 ft 14 kts 343°
2026-05-07 00:58 39.72296 -86.29673 782 ft 7 kts 42°
2026-05-07 00:58 39.72329 -86.29628 782 ft 7 kts 45°
2026-05-07 00:58 39.72363 -86.29585 782 ft 7 kts 44°
2026-05-07 00:58 39.72397 -86.29543 782 ft 8 kts 44°
2026-05-07 00:59 39.72527 -86.29377 781 ft 16 kts 44°
2026-05-07 00:59 39.72604 -86.29280 783 ft 14 kts 44°
2026-05-07 00:59 39.72660 -86.29209 783 ft 9 kts 45°
2026-05-07 01:00 39.72672 -86.29193 783 ft 0 kts 43°
2026-05-07 01:06 39.72674 -86.29191 783 ft 2 kts 43°
2026-05-07 01:06 39.72712 -86.29175 784 ft 9 kts 356°
2026-05-07 01:06 39.72776 -86.29240 784 ft 15 kts 308°
2026-05-07 01:07 39.72754 -86.29386 781 ft 22 kts 227°
2026-05-07 01:07 39.72550 -86.29646 780 ft 78 kts 225°
2026-05-07 01:07 39.71984 -86.30375 783 ft 149 kts 224°
2026-05-07 01:07 39.71134 -86.31442 1202 ft 178 kts 227°
2026-05-07 01:08 39.70286 -86.32596 2211 ft 177 kts 230°
2026-05-07 01:08 39.69339 -86.33780 2762 ft 204 kts 225°
2026-05-07 01:08 39.68241 -86.35096 3231 ft 218 kts 225°
2026-05-07 01:08 39.67099 -86.36497 3687 ft 233 kts 226°
2026-05-07 01:09 39.65913 -86.37971 4342 ft 242 kts 226°
2026-05-07 01:09 39.64648 -86.39552 4921 ft 259 kts 226°
2026-05-07 01:09 39.63341 -86.41183 5879 ft 261 kts 226°
2026-05-07 01:09 39.62027 -86.42805 6946 ft 261 kts 230°
2026-05-07 01:10 39.61161 -86.44806 7991 ft 255 kts 262°
2026-05-07 01:10 39.61385 -86.47034 9106 ft 253 kts 295°
2026-05-07 01:10 39.62534 -86.48774 10185 ft 259 kts 316°
2026-05-07 01:10 39.64119 -86.49986 11102 ft 274 kts 333°
2026-05-07 01:11 39.66033 -86.50402 11983 ft 294 kts 351°
2026-05-07 01:11 39.68128 -86.49950 12654 ft 318 kts
2026-05-07 01:11 39.70225 -86.48822 13008 ft 331 kts 16°
2026-05-07 01:11 39.72313 -86.47487 13008 ft 336 kts 18°
2026-05-07 01:12 39.74390 -86.46106 13015 ft 334 kts 18°
2026-05-07 01:12 39.76443 -86.44731 13037 ft 331 kts 18°
2026-05-07 01:12 39.78518 -86.43392 13257 ft 335 kts 17°
2026-05-07 01:12 39.80646 -86.42073 14019 ft 341 kts 15°
2026-05-07 01:13 39.82801 -86.40766 14891 ft 343 kts 14°
2026-05-07 01:13 39.84969 -86.39474 15645 ft 350 kts 14°
2026-05-07 01:13 39.87208 -86.38151 16389 ft 357 kts 14°
2026-05-07 01:13 39.89496 -86.36802 17140 ft 364 kts 13°
2026-05-07 01:14 39.91825 -86.35427 17888 ft 371 kts 13°
2026-05-07 01:14 39.94201 -86.34025 18603 ft 378 kts 13°
2026-05-07 01:14 39.96611 -86.32601 19279 ft 383 kts 12°
2026-05-07 01:14 39.99053 -86.31160 20064 ft 386 kts 12°
2026-05-07 01:15 40.01538 -86.29844 20717 ft 386 kts
2026-05-07 01:15 40.04051 -86.28669 21020 ft 383 kts
2026-05-07 01:15 40.06629 -86.27517 21059 ft 402 kts
2026-05-07 01:15 40.09343 -86.26294 21069 ft 424 kts
2026-05-07 01:16 40.12190 -86.24971 21058 ft 444 kts
2026-05-07 01:16 40.15129 -86.23577 21043 ft 450 kts
2026-05-07 01:16 40.18067 -86.22173 21030 ft 451 kts
2026-05-07 01:16 40.21016 -86.20779 21062 ft 450 kts
2026-05-07 01:17 40.23958 -86.19394 21037 ft 449 kts
2026-05-07 01:17 40.26892 -86.18015 21027 ft 447 kts
2026-05-07 01:17 40.29819 -86.16639 21025 ft 446 kts
2026-05-07 01:17 40.32740 -86.15265 21036 ft 447 kts
2026-05-07 01:18 40.35670 -86.13886 21038 ft 447 kts
2026-05-07 01:18 40.38567 -86.12521 21039 ft 448 kts
2026-05-07 01:18 40.41503 -86.11135 21100 ft 449 kts
2026-05-07 01:18 40.44445 -86.09742 21063 ft 448 kts
2026-05-07 01:19 40.47375 -86.08354 21041 ft 446 kts
2026-05-07 01:19 40.50291 -86.06971 21033 ft 444 kts
2026-05-07 01:19 40.53202 -86.05763 21019 ft 430 kts 359°
2026-05-07 01:19 40.56089 -86.05553 21057 ft 410 kts 347°
2026-05-07 01:20 40.58944 -86.05582 21042 ft 412 kts 348°
2026-05-07 01:20 40.61819 -86.05580 21011 ft 414 kts 348°
2026-05-07 01:20 40.64707 -86.05538 21009 ft 416 kts 349°
2026-05-07 01:20 40.67606 -86.05473 21010 ft 417 kts 349°
2026-05-07 01:21 40.70516 -86.05401 21011 ft 418 kts 349°
2026-05-07 01:21 40.73413 -86.05328 20999 ft 411 kts 349°
2026-05-07 01:21 40.76249 -86.05252 20673 ft 403 kts 349°
2026-05-07 01:21 40.79030 -86.05185 20295 ft 398 kts 349°
2026-05-07 01:22 40.81786 -86.05125 19859 ft 393 kts 349°
2026-05-07 01:22 40.84465 -86.05067 19425 ft 389 kts 350°
2026-05-07 01:22 40.87153 -86.05007 18970 ft 385 kts 351°
2026-05-07 01:22 40.89822 -86.04946 18506 ft 381 kts 351°
2026-05-07 01:23 40.92414 -86.05184 17985 ft 362 kts 335°
2026-05-07 01:23 40.94599 -86.06527 17529 ft 336 kts 315°
2026-05-07 01:23 40.96284 -86.08593 16884 ft 325 kts 303°
2026-05-07 01:23 40.97512 -86.11040 16375 ft 314 kts 290°
2026-05-07 01:24 40.98264 -86.13714 15912 ft 307 kts 283°
2026-05-07 01:24 40.98878 -86.16408 15454 ft 304 kts 283°
2026-05-07 01:24 40.99465 -86.19085 15021 ft 302 kts 282°
2026-05-07 01:24 41.00050 -86.21742 14580 ft 299 kts 283°
2026-05-07 01:25 41.00635 -86.24370 14151 ft 297 kts 283°
2026-05-07 01:25 41.01223 -86.26985 13700 ft 295 kts 283°
2026-05-07 01:25 41.01810 -86.29582 13230 ft 293 kts 283°
2026-05-07 01:25 41.02393 -86.32153 12811 ft 290 kts 284°
2026-05-07 01:26 41.02974 -86.34709 12370 ft 288 kts 284°
2026-05-07 01:26 41.03541 -86.37207 11961 ft 286 kts 284°
2026-05-07 01:26 41.04113 -86.39724 11536 ft 284 kts 284°
2026-05-07 01:26 41.04680 -86.42226 11118 ft 283 kts 284°
2026-05-07 01:27 41.05374 -86.44635 10925 ft 278 kts 293°
2026-05-07 01:27 41.06292 -86.46898 10788 ft 283 kts 296°
2026-05-07 01:27 41.07279 -86.49209 10653 ft 293 kts 296°
2026-05-07 01:27 41.08270 -86.51544 10511 ft 287 kts 296°
2026-05-07 01:28 41.09215 -86.53804 10348 ft 271 kts 296°
2026-05-07 01:28 41.10091 -86.55932 10213 ft 256 kts 296°
2026-05-07 01:28 41.10926 -86.57976 10098 ft 249 kts 296°
2026-05-07 01:28 41.11748 -86.59993 9991 ft 248 kts 296°
2026-05-07 01:29 41.12617 -86.61961 9858 ft 250 kts 306°
2026-05-07 01:29 41.13878 -86.63563 9758 ft 252 kts 315°
2026-05-07 01:29 41.15217 -86.65070 9625 ft 252 kts 315°
2026-05-07 01:29 41.16553 -86.66572 9502 ft 251 kts 315°
2026-05-07 01:30 41.17884 -86.68074 9376 ft 251 kts 315°
2026-05-07 01:30 41.19210 -86.69577 9265 ft 250 kts 315°
2026-05-07 01:30 41.20536 -86.71083 9136 ft 250 kts 315°
2026-05-07 01:30 41.21853 -86.72585 9021 ft 249 kts 315°
2026-05-07 01:31 41.23165 -86.74085 8906 ft 249 kts 315°
2026-05-07 01:31 41.24463 -86.75571 8788 ft 249 kts 315°
2026-05-07 01:31 41.25773 -86.77071 8671 ft 249 kts 315°
2026-05-07 01:31 41.27084 -86.78575 8548 ft 249 kts 315°
2026-05-07 01:32 41.28391 -86.80075 8429 ft 248 kts 315°
2026-05-07 01:32 41.29696 -86.81576 8321 ft 248 kts 316°
2026-05-07 01:32 41.31003 -86.83078 8217 ft 249 kts 316°
2026-05-07 01:32 41.32312 -86.84584 8087 ft 249 kts 316°
2026-05-07 01:33 41.33622 -86.86091 7969 ft 249 kts 316°
2026-05-07 01:33 41.34933 -86.87601 7858 ft 249 kts 316°
2026-05-07 01:33 41.36248 -86.89116 7728 ft 250 kts 316°
2026-05-07 01:33 41.37561 -86.90630 7620 ft 250 kts 316°
2026-05-07 01:34 41.38860 -86.92127 7502 ft 250 kts 316°
2026-05-07 01:34 41.40191 -86.93671 7383 ft 250 kts 315°
2026-05-07 01:34 41.41466 -86.95211 7266 ft 250 kts 315°
2026-05-07 01:34 41.42745 -86.96773 7144 ft 248 kts 315°
2026-05-07 01:35 41.44005 -86.98312 7025 ft 245 kts 315°
2026-05-07 01:35 41.45252 -86.99833 6907 ft 242 kts 314°
2026-05-07 01:35 41.46258 -87.01570 6785 ft 239 kts 296°
2026-05-07 01:35 41.46980 -87.03554 6667 ft 238 kts 295°
2026-05-07 01:36 41.47711 -87.05534 6570 ft 238 kts 295°
2026-05-07 01:36 41.48449 -87.07508 6466 ft 238 kts 296°
2026-05-07 01:36 41.49192 -87.09482 6348 ft 238 kts 296°
2026-05-07 01:36 41.49939 -87.11463 6231 ft 239 kts 296°
2026-05-07 01:37 41.50686 -87.13441 6118 ft 239 kts 296°
2026-05-07 01:37 41.51432 -87.15418 6023 ft 238 kts 296°
2026-05-07 01:37 41.52103 -87.17426 6003 ft 235 kts 291°
2026-05-07 01:37 41.52696 -87.19450 5985 ft 234 kts 291°
2026-05-07 01:38 41.53283 -87.21482 5991 ft 237 kts 291°
2026-05-07 01:38 41.53881 -87.23549 5987 ft 239 kts 291°
2026-05-07 01:38 41.54482 -87.25618 5977 ft 238 kts 291°
2026-05-07 01:38 41.55083 -87.27680 5969 ft 238 kts 291°
2026-05-07 01:39 41.55684 -87.29731 5969 ft 237 kts 291°
2026-05-07 01:39 41.56283 -87.31777 5970 ft 236 kts 291°
2026-05-07 01:39 41.56876 -87.33801 5977 ft 236 kts 291°
2026-05-07 01:39 41.57474 -87.35845 5980 ft 236 kts 291°
2026-05-07 01:40 41.58072 -87.37888 5971 ft 236 kts 291°
2026-05-07 01:40 41.58674 -87.39944 5825 ft 240 kts 291°
2026-05-07 01:40 41.59282 -87.42024 5687 ft 241 kts 291°
2026-05-07 01:40 41.59891 -87.44107 5537 ft 239 kts 291°
2026-05-07 01:41 41.60493 -87.46167 5387 ft 236 kts 292°
2026-05-07 01:41 41.61085 -87.48195 5250 ft 235 kts 292°
2026-05-07 01:41 41.61679 -87.50232 5116 ft 235 kts 292°
2026-05-07 01:41 41.62306 -87.52261 4962 ft 236 kts 298°
2026-05-07 01:42 41.63332 -87.53971 4730 ft 237 kts 314°
2026-05-07 01:42 41.64511 -87.55524 4421 ft 237 kts 314°
2026-05-07 01:42 41.65640 -87.57090 4097 ft 228 kts 312°
2026-05-07 01:42 41.66689 -87.58573 3828 ft 210 kts 312°
2026-05-07 01:43 41.67649 -87.59926 3558 ft 192 kts 312°
2026-05-07 01:43 41.68537 -87.61175 3310 ft 178 kts 312°
2026-05-07 01:43 41.69357 -87.62328 3087 ft 166 kts 312°
2026-05-07 01:43 41.70125 -87.63409 2885 ft 154 kts 312°
2026-05-07 01:44 41.70829 -87.64399 2690 ft 143 kts 312°
2026-05-07 01:44 41.71497 -87.65338 2535 ft 140 kts 312°
2026-05-07 01:44 41.72167 -87.66281 2330 ft 139 kts 312°
2026-05-07 01:44 41.72613 -87.66908 2197 ft 136 kts 312°
2026-05-07 01:45 41.73263 -87.67822 2028 ft 136 kts 312°
2026-05-07 01:45 41.73916 -87.68740 1850 ft 136 kts 312°
2026-05-07 01:45 41.74565 -87.69653 1655 ft 137 kts 312°
2026-05-07 01:45 41.75213 -87.70564 1471 ft 133 kts 313°
2026-05-07 01:46 41.75844 -87.71467 1305 ft 133 kts 309°
2026-05-07 01:46 41.76483 -87.72351 1136 ft 131 kts 314°
2026-05-07 01:46 41.77125 -87.73234 909 ft 133 kts 313°
2026-05-07 01:46 41.77750 -87.74134 742 ft 132 kts 311°
2026-05-07 01:47 41.78373 -87.75003 620 ft 121 kts 314°
2026-05-07 01:47 41.78866 -87.75701 618 ft 82 kts 313°
2026-05-07 01:47 41.79058 -87.75966 623 ft 23 kts 317°
2026-05-07 01:47 41.79122 -87.75948 621 ft 11 kts 84°
2026-05-07 01:48 41.79122 -87.75865 623 ft 0 kts 90°
2026-05-07 01:48 41.79124 -87.75787 621 ft 17 kts 88°
2026-05-07 01:48 41.79128 -87.75550 615 ft 31 kts 88°
2026-05-07 01:49 41.79134 -87.75234 619 ft 35 kts 89°
2026-05-07 01:49 41.79138 -87.74914 616 ft 34 kts 89°
2026-05-07 01:49 41.79135 -87.74617 627 ft 23 kts 112°
2026-05-07 01:49 41.79028 -87.74462 619 ft 22 kts 132°
2026-05-07 01:50 41.78917 -87.74419 623 ft 16 kts 205°
2026-05-07 01:50 41.78852 -87.74467 618 ft 4 kts 158°
2026-05-07 01:50 41.78846 -87.74445 621 ft 2 kts 107°
2026-05-07 01:50 41.78841 -87.74433 621 ft 1 kts 118°
2026-05-07 01:51 41.78837 -87.74423 622 ft 1 kts 120°
2026-05-07 01:51 41.78837 -87.74422 622 ft 0 kts 120°